Glasgow, KY

4:39 PM CST on December 06, 2016 (GMT -0600)
Glasgow Municipal

Weather History for KGLW - November, 2012

Change the Weather History Date:

Sunday, November 4, 2012

  Actual Average Record
Temperature  
Mean Temperature 44 °F -  
Max Temperature 54 °F 58 °F 78 °F (1956)
Min Temperature 35 °F 40 °F 15 °F (1991)
Degree Days  
Heating Degree Days 20    
Moisture  
Dew Point 34 °F    
Average Humidity 72    
Maximum Humidity 100    
Minimum Humidity 39    
Precipitation  
Precipitation 0.00 in - - ()
Sea Level Pressure  
Sea Level Pressure 30.12 in    
Wind  
Wind Speed 4 mph (NNE)    
Max Wind Speed 10 mph    
Max Gust Speed -    
Visibility 10 miles    
Events      
Averages and records for this station are not official NWS values.
T = Trace of Precipitation, MM = Missing Value Source: NWS Daily Summary

Daily Weather History Graph

Daily Weather History Graph

Search for Another Location

Airport or City:

Trip Planner

Search our weather history database for the weather conditions in past years. The results will help you decide how hot, cold, wet, or windy it might be!

Date:

Astronomy

Nov. 04, 2012 Rise Set
Actual Time 6:11 AM CST 4:42 PM CST
Civil Twilight 5:44 AM CST 5:09 PM CST
Nautical Twilight 5:13 AM CST 5:40 PM CST
Astronomical Twilight 4:43 AM CST 6:11 PM CST
Moon 9:21 PM CST (11/4) 10:53 AM CST (11/4)
Length of Visible Light 11h 25m
Length of Day
10h 31m
Waning Gibbous, 72% of the Moon is Illuminated
Nov 4
Waning Gibbous
Nov 6
Last Quarter
Nov 13
New
Nov 20
First Quarter
Nov 28
Full

Hourly Weather History & Observations

Time (CST) Temp. Windchill Dew Point Humidity Pressure Visibility Wind Dir Wind Speed Gust Speed Precip Events Conditions
12:15 AM 43.2 °F 39.7 °F 37.0 °F 79% 30.06 in 10.0 mi NNE 5.8 mph - N/A   Clear
12:35 AM 42.6 °F 40.9 °F 36.7 °F 79% 30.08 in 10.0 mi NNE 3.5 mph - N/A   Clear
12:55 AM 41.9 °F 39.0 °F 36.5 °F 81% 30.08 in 10.0 mi North 4.6 mph - N/A   Scattered Clouds
1:15 AM 41.4 °F - 36.5 °F 83% 30.08 in 10.0 mi Calm Calm - N/A   Scattered Clouds
1:35 AM 41.7 °F 39.8 °F 37.2 °F 84% 30.08 in 10.0 mi NNE 3.5 mph - N/A   Mostly Cloudy
1:55 AM 42.1 °F 40.2 °F 37.6 °F 84% 30.08 in 10.0 mi NE 3.5 mph - N/A   Overcast
1:15 AM 41.7 °F - 37.4 °F 85% 30.08 in 10.0 mi Calm Calm - N/A   Scattered Clouds
1:35 AM 40.3 °F 38.2 °F 37.8 °F 91% 30.08 in 10.0 mi North 3.5 mph - N/A   Scattered Clouds
1:55 AM 39.7 °F - 39.6 °F 99% 30.08 in 10.0 mi Calm Calm - N/A   Mostly Cloudy
2:15 AM 41.0 °F 37.1 °F 41.0 °F 100% 30.08 in 10.0 mi North 5.8 mph - N/A   Overcast
2:35 AM 41.9 °F 36.3 °F 40.3 °F 94% 30.08 in 10.0 mi North 9.2 mph - N/A   Overcast
2:55 AM 41.9 °F 37.5 °F 38.7 °F 88% 30.08 in 10.0 mi North 6.9 mph - N/A   Overcast
3:15 AM 41.9 °F 36.9 °F 38.7 °F 88% 30.08 in 10.0 mi North 8.1 mph - N/A   Overcast
3:35 AM 41.4 °F 37.6 °F 38.7 °F 90% 30.09 in 10.0 mi North 5.8 mph - N/A   Overcast
3:55 AM 41.4 °F 36.8 °F 38.5 °F 89% 30.10 in 10.0 mi NNE 6.9 mph - N/A   Overcast
4:15 AM 40.8 °F 34.5 °F 38.5 °F 91% 30.10 in 10.0 mi North 10.4 mph - N/A   Overcast
4:35 AM 40.3 °F 35.5 °F 38.8 °F 95% 30.11 in 10.0 mi NNE 6.9 mph - N/A   Overcast
4:55 AM 40.3 °F 37.1 °F 39.4 °F 97% 30.11 in 10.0 mi NNE 4.6 mph - N/A   Overcast
5:15 AM 40.1 °F 35.3 °F 39.4 °F 97% 30.11 in 10.0 mi NNE 6.9 mph - N/A   Overcast
5:35 AM 40.1 °F 34.7 °F 39.4 °F 97% 30.12 in 10.0 mi North 8.1 mph - N/A   Overcast
5:55 AM 40.1 °F 38.0 °F 39.9 °F 99% 30.11 in 10.0 mi NNE 3.5 mph - N/A   Overcast
6:15 AM 40.1 °F 36.1 °F 39.7 °F 99% 30.12 in 10.0 mi NE 5.8 mph - N/A   Overcast
7:15 AM 40.5 °F 37.3 °F 37.4 °F 89% 30.14 in 10.0 mi NE 4.6 mph - N/A   Overcast
7:35 AM 41.0 °F 36.4 °F 36.7 °F 85% 30.14 in 10.0 mi North 6.9 mph - N/A   Overcast
7:55 AM 41.2 °F 37.3 °F 36.3 °F 83% 30.15 in 10.0 mi NE 5.8 mph - N/A   Overcast
8:15 AM 41.2 °F 37.3 °F 36.5 °F 83% 30.15 in 10.0 mi NE 5.8 mph - N/A   Mostly Cloudy
8:35 AM 41.5 °F 38.6 °F 36.3 °F 82% 30.15 in 10.0 mi NE 4.6 mph - N/A   Mostly Cloudy
8:55 AM 42.6 °F 39.0 °F 36.7 °F 79% 30.16 in 10.0 mi NNE 5.8 mph - N/A   Overcast
9:15 AM 44.4 °F 42.9 °F 36.7 °F 74% 30.16 in 10.0 mi ENE 3.5 mph - N/A   Mostly Cloudy
10:15 AM 46.2 °F 44.1 °F 36.0 °F 67% 30.17 in 10.0 mi North 4.6 mph - N/A   Scattered Clouds
10:55 AM 47.8 °F - 36.0 °F 63% 30.16 in 10.0 mi NNE 4.6 mph - N/A   Clear
11:15 AM 49.1 °F - 36.0 °F 61% 30.16 in 10.0 mi NE 5.8 mph - N/A   Clear
11:55 AM 51.3 °F - 35.6 °F 55% 30.14 in 10.0 mi NE 4.6 mph - N/A   Scattered Clouds
12:15 PM 51.3 °F - 35.2 °F 54% 30.13 in 10.0 mi North 6.9 mph - N/A   Clear
12:55 PM 52.3 °F - 33.8 °F 49% 30.13 in 10.0 mi NNW 4.6 mph - N/A   Clear
1:15 PM 53.1 °F - 33.4 °F 47% 30.12 in 10.0 mi North 5.8 mph - N/A   Clear
1:35 PM 53.8 °F - 33.6 °F 46% 30.12 in 10.0 mi Calm Calm - N/A   Clear
1:55 PM 53.1 °F - 32.5 °F 46% 30.12 in 10.0 mi NNW 6.9 mph - N/A   Clear
2:15 PM 53.6 °F - 32.2 °F 44% 30.12 in 10.0 mi NW 4.6 mph - N/A   Clear
2:35 PM 53.8 °F - 31.8 °F 43% 30.11 in 10.0 mi NNW 4.6 mph - N/A   Clear
2:55 PM 54.5 °F - 31.3 °F 41% 30.11 in 10.0 mi North 4.6 mph - N/A   Clear
3:15 PM 54.1 °F - 30.4 °F 40% 30.11 in 10.0 mi NNW 3.5 mph - N/A   Clear
3:35 PM 54.0 °F - 29.5 °F 39% 30.11 in 10.0 mi North 6.9 mph - N/A   Clear
3:55 PM 53.2 °F - 29.1 °F 40% 30.11 in 10.0 mi North 5.8 mph - N/A   Clear
4:15 PM 51.8 °F - 29.7 °F 43% 30.11 in 10.0 mi North 5.8 mph - N/A   Clear
4:35 PM 49.6 °F - 29.8 °F 47% 30.11 in 10.0 mi North 3.5 mph - N/A   Clear
4:55 PM 48.2 °F - 29.3 °F 48% 30.12 in 10.0 mi Calm Calm - N/A   Clear
5:15 PM 45.7 °F 44.4 °F 29.5 °F 53% 30.12 in 10.0 mi NNW 3.5 mph - N/A   Clear
5:35 PM 44.1 °F - 30.0 °F 58% 30.13 in 10.0 mi Calm Calm - N/A   Clear
5:55 PM 44.4 °F - 30.0 °F 57% 30.14 in 10.0 mi Calm Calm - N/A   Clear
6:15 PM 43.2 °F - 30.2 °F 60% 30.14 in 10.0 mi Calm Calm - N/A   Clear
6:35 PM 42.3 °F - 30.6 °F 63% 30.14 in 10.0 mi Calm Calm - N/A   Clear
6:55 PM 42.3 °F - 30.4 °F 63% 30.14 in 10.0 mi Calm Calm - N/A   Clear
7:15 PM 37.9 °F - 30.7 °F 75% 30.14 in 10.0 mi Calm Calm - N/A   Clear
7:35 PM 38.3 °F - 31.1 °F 75% 30.14 in 10.0 mi Calm Calm - N/A   Clear
7:55 PM 38.1 °F - 30.7 °F 75% 30.14 in 10.0 mi Calm Calm - N/A   Clear
8:15 PM 37.4 °F - 30.6 °F 76% 30.14 in 10.0 mi Calm Calm - N/A   Clear
8:35 PM 35.2 °F - 30.6 °F 83% 30.15 in 10.0 mi Calm Calm - N/A   Clear
8:55 PM 36.9 °F 34.3 °F 30.6 °F 78% 30.15 in 10.0 mi NNW 3.5 mph - N/A   Clear
9:15 PM 37.8 °F 35.3 °F 30.6 °F 75% 30.15 in 10.0 mi North 3.5 mph - N/A   Clear
9:35 PM 38.3 °F - 30.4 °F 73% 30.15 in 10.0 mi Calm Calm - N/A   Clear
9:55 PM 40.1 °F 38.0 °F 30.7 °F 69% 30.15 in 10.0 mi NNE 3.5 mph - N/A   Clear
10:15 PM 39.9 °F - 30.9 °F 70% 30.15 in 10.0 mi Calm Calm - N/A   Clear
10:35 PM 39.4 °F 36.1 °F 30.7 °F 71% 30.15 in 10.0 mi NNE 4.6 mph - N/A   Clear
10:55 PM 39.2 °F 35.9 °F 30.7 °F 72% 30.14 in 10.0 mi NE 4.6 mph - N/A   Clear